Regional Weather Roundup
Issued by NWS

Home | Current Version | Previous Version | Text Only | Print | Product List | Glossary On
Versions: 1 2 3 4 5 6 7 8 9 10 11 12 13 14 15 16 17 18 19 20 21 22 23 24 25 26 27 28 29 30 31 32 33 34 35 36 37 38 39 40 41 42 43 44 45 46 47 48 49 50
000
ASUS43 KDMX 011507
RWRIA

WEATHER ROUNDUP FOR IOWA
NATIONAL WEATHER SERVICE DES MOINES IA
1000 AM CDT WED APR 01 2015

NOTE: "FAIR" INDICATES FEW OR NO CLOUDS BELOW 12,000 FEET WITH NO
SIGNIFICANT WEATHER AND/OR OBSTRUCTIONS TO VISIBILITY.

* - THESE STATIONS ARE NOT NWS STATIONS...THUS NOT UNDER NWS
QUALITY CONTROL.  THEY ALSO DO NOT REPORT WEATHER SUCH
AS PRECIPITATION OR FOG.

IAZ001>003-012>014-020>022-031>034-043>046-011600-
   NORTHWEST IOWA

CITY           SKY/WX    TMP DP  RH WIND       PRES   REMARKS
CARROLL *      SUNNY     68  34  28 S31G38    29.77F
CHEROKEE *     SUNNY     66  34  30 S24       29.72F
DENISON *      SUNNY     66  34  30 S22G33    29.75S
LE MARS *      SUNNY     64  36  34 S28G36    29.69F
ORANGE CITY *  SUNNY     66  30  26 S26G36    29.68F
SHELDON *      SUNNY     66  34  30 S28G36    29.68F
SIOUX CITY     SUNNY     69  36  29 S25G36    29.72F
SPENCER        MOSUNNY   66  34  30 S30G37    29.70F
STORM LAKE *   SUNNY     66  34  30 S26G35    29.74F
$$

IAZ055>058-069>071-079>083-090>094-011600-
   SOUTHWEST IOWA

CITY           SKY/WX    TMP DP  RH WIND       PRES   REMARKS
ATLANTIC *     MOSUNNY   66  34  30 S25G31    29.81F HAZE
AUDUBON *      SUNNY     66  30  26 S18G30    29.82F HAZE
CLARINDA *     SUNNY     66  39  37 S21       29.84F
COUNCIL BLFS * SUNNY     66  36  32 S16G23    29.79F
CRESTON *      SUNNY     64  39  39 S25G33    29.86R
HARLAN  *      SUNNY     66  34  30 S25G35    29.81F
LAMONI         SUNNY     63  37  38 S20G25    29.89S
RED OAK *      SUNNY     68  36  30 S22       29.81S
SHENANDOAH *   SUNNY     68  37  32 S21G29    29.81F
$$

IAZ047>049-059>061-072>074-084-011600-
   CENTRAL IOWA

CITY           SKY/WX    TMP DP  RH WIND       PRES   REMARKS
AMES           SUNNY     66  34  30 S23G30    29.83F
ANKENY *       SUNNY     68  34  28 S18G25    29.84F
CHARITON *     SUNNY     66  36  32 S21G30    29.88S
DES MOINES     MOSUNNY   69  33  26 S18G26    29.85F
GRINNELL*      SUNNY     64  36  34 S20       29.88F
KNOXVILLE *    SUNNY     66  34  30 S20G30    29.86S
MARSHALLTOWN   SUNNY     64  36  35 S17       29.85F
PELLA *        SUNNY     68  41  37 S18G24    29.89S
PERRY *          N/A     68  36  30 S25G32    29.82S
$$

IAZ004>006-015-016-023>025-035-036-011600-
   NORTH CENTRAL IOWA

CITY           SKY/WX    TMP DP  RH WIND       PRES   REMARKS
ALGONA *       SUNNY     63  36  36 S25       29.76F
CLARION *      SUNNY     63  37  39 S24       29.79F
ESTHERVILLE    MOSUNNY   63  34  33 S25G35    29.72F
FORT DODGE *   SUNNY     64  37  36 S23       29.80F
MASON CITY     SUNNY     62  38  40 S18       29.81F
FOREST CITY *  SUNNY     61  36  39 S20G26    29.78F
IOWA FALLS *     N/A     64  36  34 S21G28    29.83F
$$

IAZ007>011-017>019-026>030-037>042-050>054-066-011600-
   NORTHEAST IOWA

CITY           SKY/WX    TMP DP  RH WIND       PRES   REMARKS
CEDAR RAPIDS   SUNNY     62  36  37 S17G24    29.91F
CHARLES CITY * SUNNY     61  37  41 S20       29.85S
CLINTON *      SUNNY     57  37  47 S9        30.00R
DECORAH *      SUNNY     57  37  47 S13G20    29.87F
DUBUQUE        SUNNY     60  33  36 S16       29.95S
MONTICELLO *   SUNNY     61  36  39 S12G20    29.93F
OELWEIN *      SUNNY     59  37  44 S16       29.90S
WATERLOO       SUNNY     61  36  39 S14       29.87F
$$

IAZ064-065-067-068-078-011600-
   EAST CENTRAL IOWA

CITY           SKY/WX    TMP DP  RH WIND       PRES   REMARKS
DAVENPORT      SUNNY     63  34  33 S13       29.96F
IOWA CITY      SUNNY     61  37  41 S13       29.95S
MT. PLEASANT * SUNNY     64  36  34 S17       29.95S
MUSCATINE *    SUNNY     61  37  41 S8        29.95S
QUAD CITIES    SUNNY     65  34  31 S9        29.95F
$$

IAZ062-063-075>077-085>089-095>099-011600-
   SOUTHEAST IOWA

CITY           SKY/WX    TMP DP  RH WIND       PRES   REMARKS
BURLINGTON     SUNNY     65  38  36 S15       29.95S
FAIRFIELD *    SUNNY     68  34  28 S18       29.92S
FORT MADISON * SUNNY     64  37  36 S13       29.96S
KEOKUK *       SUNNY     64  36  34 S13G22    29.96R
OSKALOOSA *      N/A     68  34  28 S17G23    29.90F
CENTERVILLE *  SUNNY     68  36  30 S16G24    29.93S
OTTUMWA        SUNNY     69  35  28 S17       29.90F
WASHINGTON *   SUNNY     66  36  32 S18G25    29.92F
$$

ABBREVIATIONS USED IN REMARKS
   TC - TEMPERATURES IN CELSIUS
  WCI - WIND CHILL INDEX
   HX - HEAT INDEX
  VSB - VISIBILITY
$$




USA.gov is the U.S. government's official web portal to all federal, state and local government web resources and services.